Regional Weather Roundup
Issued by NWS Wakefield, VA

Home | Current Version | Previous Version | Graphics & Text | Print | Product List | Glossary On
Versions: 1 2 3 4 5 6 7 8 9 10 11 12 13 14 15 16 17 18 19 20 21 22 23 24 25 26 27
000
ASUS41 KAKQ 160416
RWRAKQ

REGIONAL WEATHER ROUNDUP
NATIONAL WEATHER SERVICE WAKEFIELD VA
1100 PM EST MON JAN 15 2018

Note: "fair" indicates few or no clouds below 12,000 feet with no
significant weather and/or obstructions to visibility. * = Denotes
station may not report precipitation (e.g., rain,snow,etc.),
thunder or fog.

VAZ042-051-052>054-056-160500-
NORTHERN VIRGINIA

CITY           SKY/WX    TMP DP  RH WIND       PRES   REMARKS
WASH NATIONAL  CLOUDY    31  27  85 S5        30.51R
DULLES         CLOUDY    25  23  92 CALM      30.48R
FORT BELVOIR   CLOUDY    30  27  86 SE3       30.50R
QUANTICO       CLOUDY    31  27  85 SE6       30.51S
FREDERICKSBRG* MOCLDY    25  22  89 CALM      30.49F
STAFFORD*      CLOUDY    25  24  98 CALM      30.53S
WARRENTON      FAIR      22  17  82 CALM      30.47S
CULPEPER*      FAIR      22  17  81 CALM      30.49S
MANASSAS*      FAIR      21  19  92 CALM      30.49R
LEESBURG*      CLOUDY    27  23  86 CALM      30.49R
WINCHESTER       N/A    N/A N/A N/A MISG        N/A
FRONT ROYAL*   MOCLDY    23  18  80 MISG      30.43R
LURAY*         FAIR      25  19  80 CALM      30.43R
$$

VAZ048-049-060>072-079>083-160500-
CENTRAL AND SOUTH CENTRAL VIRGINIA

CITY           SKY/WX    TMP DP  RH WIND       PRES   REMARKS
RICHMOND       CLOUDY    28  25  88 E3        30.49S FOG
CHESTERFIELD*  NOT AVBL
PETERSBURG*    FAIR      19  18  93 CALM      30.49S
HANOVER        CLOUDY    28  27  96 CALM      30.50S
TAPPAHANNOCK*  CLOUDY    31  30  95 CALM      30.50R FOG
QUINTON*       CLOUDY    29  29  99 CALM      30.49R
CHARLOTTSVILLE FAIR      26  14  60 CALM      30.45S
GORDONSVILLE*  FAIR      22  17  83 CALM      30.47S
ORANGE*        FAIR      21  18  86 CALM      30.47S
LOUISA*        FAIR      19  17  92 SE3       30.51S
BUMPASS*       FAIR      20  18  91 S5        30.48S
FARMVILLE*     FAIR      21  18  90 CALM      30.46S
CREWE*         FAIR      21  21  98 CALM      30.47S
FORT PICKETT*  FAIR      24  18  80 CALM      30.47S
CHASE CITY*    FAIR      22  17  83 CALM      30.47S
CLARKSVILLE*   FAIR      27  19  74 CALM      30.47S
SOUTH HILL*    FAIR      23  20  87 CALM      30.53S
LAWRENCEVILLE* FAIR      25  21  86 CALM      30.48S
EMPORIA*       FAIR      23  21  93 CALM      30.50S
$$

VAZ088>098-160500-
SOUTHEAST VIRGINIA

CITY           SKY/WX    TMP DP  RH WIND       PRES   REMARKS
NORFOLK        CLOUDY    34  33  96 N8        30.46F FOG
VIRGINIA BEACH CLOUDY    34  30  85 N6        30.46F
NORFOLK NAVAL  CLOUDY    34  31  88 N7        30.48F FOG
WEST POINT*    CLOUDY    31  29  91 CALM      30.52R
SALUDA*        CLOUDY    31  30  96 CALM      30.47F
NEWPORT NEWS   CLOUDY    32  29  88 CALM      30.48F
LANGLEY AFB    CLOUDY    32  30  93 CALM      30.47S FOG
FORT EUSTIS    CLOUDY    32  28  85 CALM      30.46S
WILLIAMSBURG*  CLOUDY    34  27  75 CALM      30.49S
HR EXEC AP*    CLOUDY    32  30  92 NE5       30.48F
FRANKLIN*      CLOUDY    31  28  90 CALM      30.48F
US460-WAKEFLD  CLOUDY    31  29  92 NE3       30.48F
$$

VAZ020-022-025-037-045-160500-
WEST CENTRAL AND SOUTHWEST VIRGINIA

CITY           SKY/WX    TMP DP  RH WIND       PRES   REMARKS
STAUNTON*      FAIR      26  11  55 CALM      30.43R
WAYNESBORO*    FAIR      26   9  48 CALM      30.39S
HOT SPRINGS VA FAIR      27  15  61 SW7       30.25S
LYNCHBURG      FAIR      23  11  60 CALM      30.44S
DANVILLE       FAIR      21  11  65 CALM      30.46F
SOUTH BOSTON*  FAIR      21  13  70 CALM      30.47F
MARTINSVILLE   FAIR      21  13  71 CALM      30.46F
ROANOKE        MOCLDY    28   9  44 CALM      30.43F
BLACKSBURG     FAIR      24  13  63 E3        30.39S
DUBLIN*        FAIR      26  15  64 CALM      30.37S
MARION*        FAIR      26  20  77 CALM      30.36R
HILLSVILLE*    FAIR      24  10  56 S5        30.32S
RICHLANDS*     MOCLDY    33  21  61 SW3       30.30R
WISE*          FAIR      34  25  69 S8        30.29S
ABINGDON*      MOCLDY    29  26  86 CALM      30.34R
$$

MDZ021>025-VAZ099-100-160500-
SOUTHERN MARYLAND AND THE DELMARVA PENINSULA

CITY           SKY/WX    TMP DP  RH WIND       PRES   REMARKS
PATUXENT RIVER CLOUDY    30  26  85 NW5       30.49R
BAY BRIDGE APT CLOUDY    28  21  74 NW6       30.49F
LEONARDTOWN    CLOUDY    28  27  93 CALM      30.51R
DOVER          CLOUDY    30  30 100 N5        30.47F
GEORGETOWN     MOCLDY    30  28  92 NE5       30.46F
EASTON         CLOUDY    29  23  77 CALM      30.52S
CAMBRIDGE        N/A     28  25  86 NW5       30.48S
SALISBURY      CLOUDY    29  28  96 NW3       30.46F FOG
OCEAN CITY     FAIR      33  32  96 N5        30.45F
WALLOPS ISLAND FAIR      33  32  96 N6        30.46F
ACCOMACK*      FAIR      30  29  97 CALM      30.46S FOG
$$

NCZ012>017-030>032-160500-
NORTH CENTRAL AND EASTERN NORTH CAROLINA

CITY           SKY/WX    TMP DP  RH WIND       PRES   REMARKS
ROANOKE RAPIDS FAIR      27  23  86 CALM      30.48S
RALEIGH        FAIR      25  17  72 CALM      30.47R
ELIZABETH CITY MOCLDY    31  31 100 N7        30.47S
AHOSKIE*       FAIR      25  22  89 CALM      30.48S
EDENTON*       FAIR      30  28  89 N5        30.48S
CURRITUCK*     CLOUDY    32  31  96 N9        30.47F FOG
KILL DEVIL HLS CLOUDY   N/A N/A N/A MISG      30.43F
MANTEO         CLOUDY    33  32  95 N8        30.45F
CAPE HATTERAS  NOT AVBL
TARBORO*       NOT AVBL
GOLDSBORO      FAIR      29  22  77 CALM      30.45F
WASHINGTON     FAIR      29  24  79 CALM      30.47F
GREENVILLE     FAIR      30  23  74 CALM      30.47F
NEW BERN       FAIR      30  24  78 N5        30.48S
WILMINGTON     FAIR      32  26  78 N3        30.47S
$$

VAZ048-160500-
ELSEWHERE

CITY           SKY/WX    TMP DP  RH WIND       PRES   REMARKS
HARRISBURG PA  CLOUDY    26  17  68 NW3       30.47R
BALTIMORE      CLOUDY    28  21  75 CALM      30.48F
ANNAPOLIS      CLOUDY    30  23  75 NW3       30.49F
ANDREWS AFB    CLOUDY    28  21  76 S3        30.47S
PHILADELPHIA   CLOUDY    29  22  75 NE3       30.50S
HENDERSON NC   FAIR      21  15  78 CALM      30.46F
GREENSBORO     FAIR      25  13  60 CALM      30.43S
ROCKY MOUNT    FAIR      25  23  92 CALM      30.48F
$$

VAZ100-160500-
MARINE

STATION/POSITION TIME  TEMP    WIND        PRES    WAVE   SWELL
                       AIR SEA DIR/SP/G            HT/PER HT/PER
                 (UTC) (F)     (DEG/KT/KT) (MB)    (FT/S) (FT/S)
BRANDYWINE LGT   0342   32      10/  7/  8 1032.7R
CAPE MAY NJ      0348   32 34   10/  2/  4 1031.9R
LEWES DE         0348   34 33   40/  9/ 10 1031.7F
15NM E FENWICK I 0350   41 42   60/ 14/ 17 1031.4F   6/ 8   5/ 8
OCEAN-CITY-INLET 0348   37 35   70/  2/  6 1031.5F
WACHAPREAGUE VA  0348   30 34  300/  1/  3 1031.3F
THOMAS POINT MD  0400   28 32  340/  5/  6   N/A
GOOSES REEF MD   0350   29     330/  8/  8 1032.9F
COVE POINT MD    0348   29     350/  6/  9 1033.1R
SOLOMONS ISLAND  0348   30 34  310/  3/  5 1032.3R
BISHOPS HEAD MD  0348   30 31  340/  4/  4 1032.2F
PINEY POINT MD   0336           10/  5/  6   N/A
POTOMAC MD       0350   31     130/  6/  6 1031.7R
CAMBRIDGE MD     0342   29 31              1033.0F
LEWISETTA VA     0348   30 32  360/  3/  4 1032.5R
RAPPAHANNOCK LGT 0348          340/  8/  9 1032.2R
STINGRAY PT      0350   31      10/  8/ 10 1034.3R
YORK RVR RNG VA  0348   32     360/  3/  4 1032.4S
YORKTOWN VA      0348   31 35   CALM  /  2 1031.7F
DOMINION TERM VA 0348   32      50/  2/  5 1032.3F
KIPTOPEKE VA     0348      35  360/  5/  7   N/A
CAPE HENRY VA    0348          340/  6/  9   N/A
WILLOUBY STN VA  0336          360/  4/  4 1032.0F
S CRANEY ISL VA  0348   33      10/  5/  8 1032.0R
CAPE HENRY BUOY  0330      42                N/A     5/10   2/11
1ST LANDING BUOY 0350   33      20/  8/ 12 1031.8R
CAPE CHARLES BUO 0351      40                N/A     5/ 9   2/11
64NM E OF VA BCH 0350   51 66  330/ 16/ 19 1029.8R   8/ 9   5/ 9
DUCK PIER NC     0348   35 38  360/ 16/ 18 1030.5R
44100 DUCK FRF   0345      42                N/A     7/ 9   2/11
44056 DUCK FRF   0400      40                N/A     6/10   2/11
OREGON INLET NC  0336   36 41  330/ 11/ 16 1030.8S
HATTERAS NC      0348   36 44  350/ 19/ 21 1030.2R
DIAMOND SHLS NC  0350   43 64  330/ 19/ 25 1030.0R   8/ 9   7/ 9
CAPE LOOKOUT NC  0300          340/ 12/ 16 1031.2R
$$




USA.gov is the U.S. government's official web portal to all federal, state and local government web resources and services.